Location: Hollin Hills
(38.7573°N, 77.0661°W)
Time: 11:23:22
(UTC+00:00)

ISS - Pass Details

Date: 25 April 2026
Orbit: 414 x 424 km, 51.6° (Epoch: 11 May)

Event Time Altitude Azimuth Distance (km) Brightness Sun altitude
Exits shadow 08:57:17 - 306° (NW) 1,594 -1.0 -15.2°
Reaches altitude 10° 08:57:43 10° 312° (NW) 1,498 -1.1 -15.1°
Maximum altitude 08:59:28 13° 343° (NNW) 1,308 -1.1 -14.8°
Drops below altitude 10° 09:01:14 10° 15° (NNE) 1,504 -0.3 -14.5°
Sets 09:04:12 0° 43° (NE) 2,373 1.6 -14.0°
